x

Mt Desert Rock, Me (mdrm1) Weather Station

3:00pm - Mon 20th Nov 2017 All times are EST. -5 hours from GMT.

  • Wind
    33mph, 39mph gusts
  • Air Temp 35°f
  • Sea Pressure 1008.1mb
  • Mt Desert Rock, Me
  • Mt Desert Rock, Me

More Historic Weather Station data

Upgrade to MSW Pro to gain access to the past 30 days of data for over 8000 Wavebouys and Weather Stations around the globe.

Join

Comparision Forecast

View Surf forecast
   
Mon 11/20 3:00pm 33 39 mph 1008.1mb 35f
2:00pm 34 41 mph 1006.8mb 36f
1:00pm 36 41 mph 1006.2mb 36f
12:00pm 32 37 mph 1006.1mb 36f
11:00am 29 36 mph 1006.4mb 35f
10:00am 29 37 mph 1006.7mb 35f
9:00am 26 32 mph 1006mb 34f
8:00am 31 37 mph 1005.2mb 35f
7:00am 29 32 mph 1004.2mb 35f
6:00am 25 31 mph 1003.4mb 35f
5:00am 32 38 mph 1002.3mb 35f
4:00am 24 29 mph 1001.6mb 36f
3:00am 31 36 mph 1000.6mb 36f
2:00am 32 36 mph 1000.3mb 36f
1:00am 28 32 mph 999.6mb 37f
12:00am 31 36 mph 999mb 37f
Sun 11/19 11:00pm 29 34 mph 998.2mb 37f
10:00pm 30 37 mph 997.3mb 37f
9:00pm 32 37 mph 995.7mb 38f
8:00pm 34 44 mph 994.3mb 39f
7:00pm 38 43 mph 992.1mb 41f
6:00pm 39 43 mph 989.6mb 44f
5:00pm 37 43 mph 987.1mb 48f
4:00pm 33 37 mph 984.5mb 53f
3:00pm 34 39 mph 983.5mb 55f
2:00pm 36 39 mph 983.5mb 55f
1:00pm 32 36 mph 984.8mb 55f
12:00pm 31 36 mph 985.6mb 55f
11:00am 36 40 mph 987mb 56f
10:00am 39 43 mph 988.5mb 56f
9:00am 37 43 mph 989.5mb 56f
8:00am 38 44 mph 990.7mb 56f
7:00am 36 39 mph 991.8mb 56f
6:00am 33 37 mph 992.9mb 55f
5:00am 26 29 mph 994.7mb 54f
4:00am 22 24 mph 996.1mb 53f
3:00am 32 37 mph 996.9mb 53f
2:00am 34 40 mph 998.2mb 54f
1:00am 28 31 mph 999.9mb 51f
12:00am 33 37 mph 1001.8mb 51f
Sat 11/18 11:00pm 32 36 mph 1003.3mb 50f
10:00pm 28 30 mph 1004.7mb 49f
9:00pm 22 23 mph 1006.1mb 48f
8:00pm 18 21 mph 1006.9mb 47f
7:00pm 22 23 mph 1007.7mb 46f
6:00pm 20 21 mph 1008mb 45f
5:00pm 16 18 mph 1008.7mb 43f
4:00pm 15 17 mph 1009mb 41f
3:00pm 5 5 mph 1009.6mb 40f
2:00pm 6 6 mph 1009.8mb 38f
1:00pm 3 6 mph 1010.6mb 38f
12:00pm 3 3 mph 1011.1mb 37f
11:00am 8 10 mph 1012.5mb 35f
10:00am 10 13 mph 1013.1mb 35f
9:00am 15 16 mph 1013.4mb 34f
8:00am 21 24 mph 1012.9mb 34f
7:00am 22 24 mph 1012.5mb 34f
6:00am 28 31 mph 1011.4mb 34f
5:00am 32 34 mph 1011.2mb 34f
4:00am 31 34 mph 1011.2mb 33f
3:00am 31 34 mph 1011.4mb 34f
2:00am 31 34 mph 1011.2mb 33f
1:00am 26 32 mph 1010.6mb 35f
12:00am 33 39 mph 1010.6mb 34f
Fri 11/17 11:00pm 31 36 mph 1010.9mb 34f
10:00pm 33 38 mph 1010.1mb 34f
9:00pm 33 39 mph 1010.4mb 34f
8:00pm 37 41 mph 1009.6mb 34f
7:00pm 33 39 mph 1009.1mb 34f
6:00pm 36 41 mph 1008.5mb 35f
5:00pm 33 38 mph 1007.7mb 37f
4:00pm 37 40 mph 1006.3mb 38f
3:00pm 30 33 mph 1005.7mb 38f
2:00pm 38 43 mph 1004.6mb 39f
1:00pm 37 43 mph 1004mb 40f
12:00pm 40 44 mph 1003.2mb 42f
11:00am 38 44 mph 1002.8mb 43f
10:00am 34 40 mph 1003mb 43f
9:00am 40 43 mph 1002.1mb 43f
8:00am 36 39 mph 1002mb 43f
7:00am 32 37 mph 1001.5mb 44f
6:00am 26 30 mph 1001mb 43f
5:00am 26 29 mph 1000.4mb 43f
4:00am 29 31 mph 1000mb 43f
3:00am 28 31 mph 1000.1mb 43f
2:00am 26 30 mph 1000mb 42f
1:00am 30 32 mph 999.6mb 41f
12:00am 26 29 mph 999.9mb 42f
Thu 11/16 11:00pm 24 26 mph 999.8mb 44f